Simultaneous Nadir Overpasses (SNOs) Predictions

Prediction of SNOs between AQUA and GOES-15 Satellite Orbit:

Table of predicted SNOs for the next 14.0 days since TLE Epoch: 6/17/2023
Index Date Time (AQUA) AQUA Lat,Lon GOES-15 Lat,Lon Distance(km) Time Diff (sec)
1 06/18/2023 00:30:56 0.56,-160.39 0.12,-162.30 218.22 80
2 06/18/2023 12:51:42 0.47,-165.42 -0.16,-162.50 332.06 80
3 06/20/2023 12:37:37 -0.41,-162.01 -0.14,-163.29 145.50 80
4 06/21/2023 00:58:32 -0.62,-167.08 0.17,-163.49 409.14 80
5 06/23/2023 00:44:27 0.30,-163.67 0.16,-164.27 68.29 80
6 06/23/2023 13:05:13 0.71,-168.71 -0.19,-164.47 481.94 80
7 06/25/2023 12:51:07 -0.19,-165.30 -0.18,-165.25 5.12 80
8 06/27/2023 12:37:00 -1.05,-161.87 -0.17,-166.02 471.80 80
9 06/28/2023 00:57:55 0.05,-166.95 0.20,-166.21 83.22 80
10 06/30/2023 00:43:48 0.95,-163.53 0.19,-166.97 392.45 80
11 06/30/2023 13:04:32 0.10,-168.56 -0.22,-167.17 158.29 80
